Regional Weather Roundup
Issued by NWS State College, PA

Current Version | Previous Version | Text Only | Print | Product List | Glossary On
Versions: 1 2 3 4 5 6 7 8 9 10 11 12 13 14 15 16 17 18 19 20 21 22 23 24 25 26 27 28 29 30 31 32 33 34 35 36 37 38 39 40 41 42 43 44 45 46 47 48 49 50
000
ASUS41 KCTP 280103
RWRCTP

REGIONAL WEATHER ROUNDUP
NATIONAL WEATHER SERVICE STATE COLLEGE PA
900 PM EDT WED JUL 27 2016

Note: "fair" indicates few or no clouds below 12,000 feet with no
significant weather and/or obstructions to visibility.

* = STATION THAT DOES NOT REPORT PRECIPITATION /E.G. RAIN...SNOW...ETC/
    THUNDER OR FOG.

PAZ002>004-007>009-013>016-020>023-029>032-280200-
WESTERN PENNSYLVANIA

CITY           SKY/WX    TMP DP  RH WIND       PRES   REMARKS
ERIE           CLEAR     78  64  61 S3        29.95S
MEADVILLE      CLEAR     73  60  63 N3        29.99R
FRANKLIN*      CLEAR     73  57  56 CALM      30.00S
NEW CASTLE     FAIR      78  63  59 E5        29.96S
BEAVER COUNTY  NOT AVBL
BUTLER*        CLEAR     75  63  64 CALM      29.99F
PITTSBURGH INT PTCLDY    83  58  42 NE6       29.95F
PITTSBURGH     CLEAR     79  62  56 NE5       29.95F
INDIANA*       CLEAR     75  63  64 CALM      30.00F
LATROBE        CLEAR     79  64  61 CALM      29.97S
WASHINGTON CO* PTCLDY    77  68  73 CALM      29.96F
$$

PAZ004>006-010>012-017>019-024>028-033>037-041-042-045-046-049>053-280200-
CENTRAL PENNSYLVANIA

CITY           SKY/WX    TMP DP  RH WIND       PRES   REMARKS
BRADFORD       CLEAR     70  62  76 CALM      30.02R
DUBOIS         CLEAR     78  57  48 N3        30.00R
CLEARFIELD     CLEAR     74  61  63 N7        29.99R
JOHNSTOWN      CLEAR     78  52  40 NW5       30.02F
ALTOONA        CLEAR     75  57  53 CALM      29.98S
STATE COLLEGE  CLEAR     81  57  44 CALM      29.96R
WILLIAMSPORT   CLEAR     84  58  40 CALM      29.90R
SELINSGROVE    CLEAR     72  72 100 CALM      29.92S
FT INDIANTOWN  CLEAR     75  64  67 NE1       29.92S
CAPITAL CITY   CLEAR     85  63  47 S6        29.91S
HARRISBURG     PTCLDY    83  70  64 SE3       29.90S
YORK           CLEAR     78  68  71 CALM      29.92S
$$

PAZ038>040-043-044-047-048-054-055-060>062-067>071-280200-
EASTERN PENNSYLVANIA

CITY           SKY/WX    TMP DP  RH WIND       PRES   REMARKS
SCRANTON       PTCLDY    78  61  55 S3        29.95R
MOUNT POCONO   CLEAR     68  62  81 CALM      30.01R
ALLENTOWN      CLEAR     79  59  50 SW5       29.92R
QUAKERTOWN*    CLEAR     79  64  61 CALM      29.94R
READING        CLEAR     84  62  47 NW3       29.90S
LANCASTER      CLEAR     76  66  71 SE5       29.92S
COATESVILLE    LGT RAIN  79  64  61 CALM      29.95S
POTTSTOWN      CLEAR     82  65  56 CALM      29.93S
BLUE BELL      CLEAR     73  70  88 CALM      29.90S
DOYLESTOWN     CLEAR     76  65  68 CALM      29.92R
WILLOW GROVE   NOT AVBL
NORTH PHILA    MOCLDY    85  67  54 CALM      29.92R
PHILADELPHIA   PTCLDY    89  63  41 NW8       29.90R
$$



USA.gov is the U.S. government's official web portal to all federal, state and local government web resources and services.